Location: Kalberh�ni
(46.4610°N, 7.2453°E)
Time: 17:01:50
(UTC+00:00)

Meteor 2-1 Rocket - Pass Details

Date: 28 October 2021
Orbit: 830 x 906 km, 81.3° (Epoch: 28 November)

Event Time Altitude Azimuth Distance (km) Brightness Sun altitude
Rises 04:10:23 0° 0° (N) 3,388 7.4 -20.6°
Reaches altitude 10° 04:13:35 10° 19° (NNE) 2,454 6.9 -20.0°
Maximum altitude 04:17:23 19° 63° (ENE) 1,924 6.9 -19.4°
Drops below altitude 10° 04:21:12 10° 106° (ESE) 2,465 7.7 -18.7°
Sets 04:24:23 0° 125° (SE) 3,409 8.3 -18.2°
